Content
SEND FEEDBACK

Daily
Averages
Monthly
Summary
Libya

BENGHAZI, LIBYA


Home > Africa > Libya
Elevation: 82 feet     Latitude: 32 06N     Longitude: 020 00E

WEATHER
 
SELECT A DAY
Number of Records: 155,470;   Date Range: 7/1/96 - 6/21/14
 
SHARE

PRINT THIS DATA

[ ← Previous Day ]
WEATHER ALMANAC - FEBRUARY 13, 2013
[ Next Day → ]
[ °C ]   °F
Weather ElementAverageHighLow
Temperature54.2 °F64.4 °F (1:15 pm)48 °F (10:00 pm)
Dewpoint39.5 °F48.2 °F (9:25 pm)30.2 °F (4:50 am)
Humidity57.4 %82 % (9:25 pm)33 % (10:00 am)
Barometer29.92 in29.97 in (10:00 pm)29.89 in (2:50 am)
Wind Speed18.7 mph40.3 mph (12:50 am)
Wind Gust46 mph (2:20 am)
Weather ElementAverage
Visibility5.5 mi
Wind DirectionSSW (188.6 °)

Weather ElementTotal
Precipitation---
Heating Degree Days8.8 (Base 65)
Growing Degree Days6.2 (Base 50)
Averaged from 51 records on February 13, 2013
WEATHER CONDITIONS BREAKOUT
WIND DIRECTION BREAKOUT
WEATHER BY HOUR - FEBRUARY 13, 2013
[ °C ]   °F
Local TimeTemperatureDewpointHumidityBarometerVisibilityWind DirectionWind SpeedGust SpeedPrecipitationEventsConditions
12:50 AM51.8 °F32.0 °F47 %29.92 inSSE (150°)40.3 mphClear
1:00 AM52.0 °F32.0 °F35 %29.94 in6.0 miSSE (150°)40.3 mph
1:20 AM51.8 °F32.0 °F47 %29.92 inSSE (150°)28.8 mph40.3 mphClear
1:50 AM51.8 °F32.0 °F47 %29.92 inSSE (150°)34.5 mphClear
2:20 AM51.8 °F32.0 °F47 %29.92 inSSE (150°)34.5 mph46.0 mphClear
2:50 AM51.8 °F32.0 °F47 %29.89 inSSE (150°)40.3 mphClear
3:20 AM51.8 °F32.0 °F47 %29.89 inSSE (150°)36.8 mphClear
3:50 AM50.0 °F32.0 °F50 %29.92 inSE (140°)40.3 mphClear
4:00 AM51.0 °F31.0 °F34 %29.93 in6.0 miSE (140°)40.3 mph
4:50 AM50.0 °F30.2 °F47 %29.92 inSE (140°)34.5 mphClear
5:50 AM48.2 °F30.2 °F50 %29.92 inSE (140°)34.5 mphClear
6:20 AM48.2 °F32.0 °F54 %29.92 inSE (140°)28.8 mphClear
6:50 AM48.2 °F32.0 °F54 %29.92 inSSE (150°)28.8 mphClear
7:00 AM49.0 °F32.0 °F40 %29.95 in6.0 miSSE (150°)28.8 mph
7:30 AM50.0 °F33.8 °F54 %29.95 inSSE (150°)23.0 mphClear
7:50 AM50.0 °F33.8 °F54 %29.95 inSSE (160°)17.3 mphClear
8:15 AM51.8 °F33.8 °F50 %29.95 inSSE (150°)23.0 mphClear
8:45 AM53.6 °F33.8 °F47 %29.95 inSSE (150°)17.3 mphClear
9:15 AM55.4 °F35.6 °F47 %29.95 inSSE (160°)28.8 mphClear
9:45 AM55.4 °F35.6 °F47 %29.95 inSSE (150°)23.0 mphClear
10:00 AM55.0 °F34.0 °F33 %29.96 in6.0 miSSE (150°)23.0 mph
10:15 AM57.2 °F39.2 °F51 %29.95 inSSE (160°)17.3 mphClear
10:45 AM59.0 °F39.2 °F48 %29.95 inSouth (170°)17.3 mphClear
11:15 AM60.8 °F42.8 °F52 %29.95 inSouth (190°)17.3 mphClear
12:00 PM60.8 °F42.8 °F52 %29.95 inSouth (180°)5.8 mphClear
12:15 PM62.6 °F42.8 °F48 %29.92 inSSW (200°)5.8 mphClear
1:00 PM62.0 °F43.0 °F39 %29.93 in6.0 miSouth (180°)5.8 mphClear
1:15 PM64.4 °F42.8 °F45 %29.89 in6.2 miSSW (200°)5.8 mphScattered Clouds
1:50 PM62.6 °F42.8 °F48 %29.89 in6.2 miSSW (200°)9.2 mphMostly Cloudy
2:50 PM60.8 °F46.4 °F59 %29.89 in5.0 miWNW (290°)17.3 mphMostly Cloudy
3:15 PM59.0 °F44.6 °F59 %29.89 in5.0 miWNW (300°)17.3 mphMostly Cloudy
3:45 PM59.0 °F44.6 °F59 %29.89 in5.0 miNW (320°)17.3 mphMostly Cloudy
4:00 PM60.0 °F46.0 °F49 %29.90 in5.0 miNW (320°)17.3 mphHaze
4:15 PM57.2 °F44.6 °F63 %29.89 in5.0 miNW (320°)15.0 mphMostly Cloudy
4:45 PM57.2 °F46.4 °F67 %29.89 in6.2 miNW (320°)11.5 mphMostly Cloudy
5:20 PM57.2 °F46.4 °F67 %29.89 in6.2 miNNW (340°)15.0 mphMostly Cloudy
5:45 PM57.2 °F46.4 °F67 %29.89 in6.2 miNNW (340°)15.0 mphMostly Cloudy
6:15 PM57.2 °F46.4 °F67 %29.89 in6.2 miNNW (340°)9.2 mphMostly Cloudy
6:45 PM55.4 °F46.4 °F72 %29.89 in6.2 miNorth (360°)5.8 mphMostly Cloudy
7:00 PM55.0 °F46.0 °F62 %29.92 in6.0 miNorth5.8 mphPartly Cloudy
7:15 PM55.4 °F46.4 °F72 %29.92 in6.2 miNNE (20°)5.8 mphMostly Cloudy
7:45 PM53.6 °F46.4 °F77 %29.92 inNNE (20°)2.3 mphMostly Cloudy
8:15 PM53.6 °F46.4 °F77 %29.92 in6.2 miCalmMostly Cloudy
8:45 PM53.6 °F46.4 °F77 %29.92 in6.2 miCalmMostly Cloudy
9:25 PM53.6 °F48.2 °F82 %29.92 in5.0 miCalmMostly Cloudy
9:45 PM48.2 °F42.8 °F82 %29.95 in3.7 miWest (260°)9.2 mphRainHeavy Rain
10:00 PM48.0 °F43.0 °F78 %29.97 in4.0 miWest (260°)9.2 mphRain-ThunderstormThunderstorms and Rain
10:15 PM50.0 °F44.6 °F82 %29.95 in4.3 miWest (280°)17.3 mphScattered Clouds
10:45 PM48.2 °F42.8 °F82 %29.95 in4.3 miWNW (300°)11.5 mphMostly Cloudy
11:15 PM48.2 °F42.8 °F82 %29.95 in5.0 miNW (310°)15.0 mphMostly Cloudy
11:45 PM48.2 °F42.8 °F82 %29.95 in5.0 miNW (320°)5.8 mphMostly Cloudy
Hourly data recorded from HLLB, located miles away from Benghazi, Libya







STORIES FROM OUR PARTNERS